7 * 24
多渠道服务支持
STARLINK-32555是美国SpaceX公司星链星座的成员卫星,于2024年11月11日发射入轨,属于星链星座扩容组网的一部分。该卫星为低轨通信卫星,配备Ku/Ka波段通信载荷与霍尔推进器,具备自主避撞能力,服务全球高速宽带互联网覆盖,单星设计寿命约5-7年,退役后会主动离轨再入大气层焚毁。
美国
(US)
| 数据来源 | 国际轨道数据 |
| 星历时间: | 2026-09-11T21:26:29+0800 8小时前 查看轨道信息 |
| 半长轴: | 6861.15km |
| 偏心率: | 0.000261 |
| 轨道倾角: | 43.007° |
| 近地点辐角 | 284.042° |
| 升交点赤经 | 315.929° |
| 平近点角 | 76.014° |
| 近地点: | 481.222km |
| 远地点: | 484.804km |
| 周期: | 94.266分钟 |
| 每日圈数: | 15.275923 |
| 事件ID | 空间交会对象 | 最接近时刻(TCA) | 交会距离 | 交会风险概率(CRP) | 交会风险指数(CRI) | 操作 |
|---|---|---|---|---|---|---|
| CDM_260912-215206-191806-634421 |
STARLINK-32555
(61918)
STARLINK-35511
(66344) | 2026-09-12T 21:52:38+0000 |
0.611 km
远距离 | 7.160483E-5 中风险 | 0.72 | |
| CDM_260910-180205-641306-191821 |
STARLINK-6258
(56413)
STARLINK-32555
(61918) | 2026-09-10T 18:02:26+0000 |
0.724 km
远距离 | 5.053899E-5 中风险 | 0.69 | |
| CDM_260914-053306-191806-697721 |
STARLINK-32555
(61918)
STARLINK-35770
(66977) | 2026-09-14T 05:33:41+0000 |
1.006 km
极远距离 | 1.698662E-5 中风险 | 0.6 | |
| CDM_260910-193605-641306-191821 |
STARLINK-6258
(56413)
STARLINK-32555
(61918) | 2026-09-10T 19:36:35+0000 |
1.108 km
极远距离 | 1.216451E-5 中风险 | 0.57 | |
| CDM_260912-065806-191806-634421 |
STARLINK-32555
(61918)
STARLINK-35511
(66344) | 2026-09-12T 06:58:12+0000 |
1.059 km
极远距离 | 1.209641E-5 中风险 | 0.57 | |
| CDM_260912-201806-191806-634421 |
STARLINK-32555
(61918)
STARLINK-35511
(66344) | 2026-09-12T 20:18:29+0000 |
1.412 km
极远距离 | 4.544557E-6 低风险 | 0.48 | |
| CDM_260912-083206-191806-634421 |
STARLINK-32555
(61918)
STARLINK-35511
(66344) | 2026-09-12T 08:32:21+0000 |
1.427 km
极远距离 | 4.399984E-6 低风险 | 0.48 | |
| CDM_260912-232606-191806-634421 |
STARLINK-32555
(61918)
STARLINK-35511
(66344) | 2026-09-12T 23:26:47+0000 |
1.985 km
极远距离 | 1.700419E-6 低风险 | 0.4 | |
| CDM_260910-162805-641306-191821 |
STARLINK-6258
(56413)
STARLINK-32555
(61918) | 2026-09-10T 16:28:17+0000 |
2.157 km
极远距离 | 1.615305E-6 低风险 | 0.39 | |
| CDM_260912-052406-191806-634421 |
STARLINK-32555
(61918)
STARLINK-35511
(66344) | 2026-09-12T 05:24:03+0000 |
2.130 km
极远距离 | 1.444095E-6 低风险 | 0.38 |